Worcester, MA

4:22 AM EDT on October 22, 2017 (GMT -0400)
Worcester Regional

Weather History for KORH - June, 2014

Change the Weather History Date:

Wednesday, June 25, 2014

  Actual Average Record
Temperature  
Mean Temperature 72 °F 68 °F  
Max Temperature 83 °F 77 °F 92 °F (1942)
Min Temperature 61 °F 59 °F 44 °F (1931)
Degree Days  
Heating Degree Days 0 1  
Month to date heating degree days 45 77  
Since 1 June heating degree days 45 77  
Since 1 July heating degree days 7073 6711  
Cooling Degree Days 7 4  
Month to date cooling degree days 56 63  
Year to date cooling degree days 64 85  
Since 1 June cooling degree days 56 63  
Growing Degree Days 22 (Base 50)    
Moisture  
Dew Point 63 °F    
Average Humidity 74    
Maximum Humidity 90    
Minimum Humidity 58    
Precipitation  
Precipitation 0.00 in 0.13 in 1.14 in (2011)
Month to date precipitation 1.02 3.57  
Year to date precipitation 22.21 22.80  
Sea Level Pressure  
Sea Level Pressure 29.95 in    
Wind  
Wind Speed 14 mph (SW)    
Max Wind Speed 21 mph    
Max Gust Speed 27 mph    
Visibility 10 miles    
Events      
T = Trace of Precipitation, MM = Missing Value Source: NWS Daily Summary

Daily Weather History Graph

Daily Weather History Graph

Search for Another Location

Airport or City:

Trip Planner

Search our weather history database for the weather conditions in past years. The results will help you decide how hot, cold, wet, or windy it might be!

Date:

Astronomy

Jun. 25, 2014 Rise Set
Actual Time 5:12 AM EDT 8:28 PM EDT
Civil Twilight 4:37 AM EDT 9:02 PM EDT
Nautical Twilight 3:52 AM EDT 9:47 PM EDT
Astronomical Twilight 2:58 AM EDT 10:42 PM EDT
Moon 4:03 AM EDT (6/25) 6:55 PM EDT (6/25)
Length of Visible Light 16h 25m
Length of Day
15h 15m
Waning Crescent, 3% of the Moon is Illuminated
Jun 25
Waning Crescent
Jun 27
New
Jul 5
First Quarter
Jul 12
Full
Jul 18
Last Quarter

Hourly Weather History & Observations

Time (EDT) Temp. Heat Index Dew Point Humidity Pressure Visibility Wind Dir Wind Speed Gust Speed Precip Events Conditions
12:54 AM 64.0 °F - 53.1 °F 67% 30.01 in 10.0 mi SW 17.3 mph - N/A   Clear
1:54 AM 63.0 °F - 52.0 °F 67% 30.01 in 10.0 mi WSW 13.8 mph - N/A   Clear
2:54 AM 63.0 °F - 53.1 °F 70% 30.00 in 10.0 mi WSW 15.0 mph - N/A   Clear
3:54 AM 61.0 °F - 55.0 °F 81% 29.99 in 10.0 mi WSW 11.5 mph - N/A   Clear
4:54 AM 61.0 °F - 57.0 °F 87% 29.98 in 10.0 mi SW 15.0 mph - N/A   Clear
5:54 AM 62.1 °F - 59.0 °F 90% 29.98 in 10.0 mi WSW 15.0 mph - N/A   Clear
6:54 AM 64.9 °F - 61.0 °F 87% 29.99 in 10.0 mi WSW 16.1 mph - N/A   Clear
7:54 AM 69.1 °F - 63.0 °F 81% 29.98 in 10.0 mi WSW 17.3 mph - N/A   Clear
8:54 AM 73.9 °F - 64.0 °F 71% 29.99 in 10.0 mi WSW 18.4 mph - N/A   Clear
9:54 AM 75.9 °F - 64.9 °F 69% 29.98 in 10.0 mi WSW 19.6 mph 24.2 mph N/A   Clear
10:54 AM 77.0 °F - 64.9 °F 66% 29.98 in 10.0 mi WSW 18.4 mph - N/A   Clear
11:54 AM 80.1 °F 82.1 °F 66.0 °F 62% 29.96 in 10.0 mi WSW 13.8 mph - N/A   Clear
12:54 PM 81.0 °F 82.7 °F 64.9 °F 58% 29.95 in 10.0 mi WSW 17.3 mph 26.5 mph N/A   Clear
1:54 PM 81.0 °F 83.0 °F 66.0 °F 60% 29.94 in 10.0 mi SSW 11.5 mph - N/A   Scattered Clouds
2:54 PM 81.0 °F 82.7 °F 64.9 °F 58% 29.92 in 10.0 mi South 11.5 mph - N/A   Scattered Clouds
3:54 PM 82.0 °F 84.5 °F 66.9 °F 60% 29.90 in 10.0 mi SSW 12.7 mph - N/A   Mostly Cloudy
4:54 PM 81.0 °F 83.0 °F 66.0 °F 60% 29.89 in 10.0 mi South 17.3 mph 24.2 mph N/A   Clear
5:54 PM 79.0 °F - 66.0 °F 64% 29.89 in 10.0 mi SSW 15.0 mph 20.7 mph N/A   Clear
6:54 PM 75.9 °F - 66.0 °F 71% 29.91 in 10.0 mi South 13.8 mph - N/A   Partly Cloudy
7:54 PM 73.9 °F - 66.9 °F 79% 29.89 in 10.0 mi SSW 15.0 mph - N/A   Clear
8:54 PM 73.4 °F - 64.4 °F 73% 29.91 in 10.0 mi SSW 12.7 mph - N/A   Clear
9:54 PM 71.6 °F - 66.2 °F 83% 29.91 in 10.0 mi SSW 10.4 mph - N/A   Mostly Cloudy
10:54 PM 72.0 °F - 66.9 °F 84% 29.88 in 10.0 mi South 11.5 mph - N/A   Overcast
11:54 PM 71.1 °F - 66.9 °F 87% 29.87 in 10.0 mi SSW 10.4 mph - N/A   Overcast